Location: Poughquag
(41.6090°N, 73.6820°W)
Time: 02:48:27
(UTC-05:00)

Tiros 1 - Visible Passes

Search period start: 17 February 2020 00:00
Search period end: 27 February 2020 00:00
Orbit: 630 x 664 km, 48.4° (Epoch: 16 February)

Date Brightness Start Highest point End Pass type
(mag) Time Alt. Az. Time Alt. Az. Time Alt. Az.
17 Feb 9.0 03:53:47 27° ENE 03:53:47 27° ENE 03:55:59 10° ENE visible
17 Feb 7.7 05:31:27 24° WNW 05:33:48 43° NNW 05:38:13 10° ENE visible
18 Feb 8.0 04:18:45 45° NE 04:18:45 45° NE 04:22:05 10° ENE visible
18 Feb 8.1 05:56:24 13° WNW 06:00:11 35° N 06:04:27 10° ENE visible
19 Feb 7.6 04:43:39 44° NNW 04:43:43 44° NNW 04:48:09 10° ENE visible
20 Feb 9.7 03:30:52 18° ENE 03:30:52 18° ENE 03:32:02 10° ENE visible
20 Feb 8.1 05:08:31 28° NW 05:10:05 36° N 05:14:22 10° ENE visible
21 Feb 8.9 03:55:43 27° NE 03:55:43 27° NE 03:58:06 10° ENE visible
21 Feb 8.2 05:33:22 16° NW 05:36:31 35° N 05:40:47 10° ENE visible
22 Feb 8.2 04:20:33 35° N 04:20:33 35° N 04:24:18 10° ENE visible
22 Feb 7.9 05:58:29 10° WNW 06:02:54 43° NNE 06:07:19 10° E visible
23 Feb 10.2 03:07:44 12° ENE 03:07:44 12° ENE 03:08:03 10° ENE visible
23 Feb 8.1 04:45:23 31° NNW 04:46:26 35° N 04:50:41 10° ENE visible
24 Feb 9.5 03:32:34 20° NE 03:32:34 20° NE 03:34:13 10° ENE visible
24 Feb 8.0 05:10:14 22° NW 05:12:49 41° NNE 05:17:12 10° E visible
25 Feb 8.7 03:57:26 31° NNE 03:57:26 31° NNE 04:00:36 10° ENE visible
25 Feb 7.5 05:35:06 13° WNW 05:39:06 60° NNE 05:43:41 10° ESE visible
26 Feb 8.0 04:22:21 39° N 04:22:44 40° NNE 04:27:06 10° E visible
26 Feb 7.1 06:00:35 10° WNW 06:05:13 78° SSW 06:09:50 10° SE visible
